^^
Datos históricos de la estación: Murcia-Puente Tocinos
Diario Informe para Julio 26, 2021 Unidades:  Métrico    Ingés   Ambas
Diario Semanal Mensual Anual
  Máxima: Mínima: Promedio:
Temperatura: 30.1 °C 21.2 °C 25.3 °C
Punto de rocio: 22.8 °C 17.7 °C 20.6 °C
Humedad: 88% 49.5% 76%
Velocidad viento: 33.5km/h 0km/h 5.8km/h
Racha viento: 56.5km/h - -
Viento- - SSE
Presión: 1014.6 hPa 1007.9 hPa -
Precipitación: 8.2 mm    
 
 
Tabla de datos para Julio 26, 2021
Hora Temperatura Punto de rocio Presión Viento Velocidad viento Racha viento Humedad Intensidad lluvia(por hora) Nubes
00:04 25.4 °C 22.1 °C 1008.8 hPa NNE 6.9 km/h 11.9 km/h 82% 0.0 mm
00:09 25.4 °C 22.1 °C 1008.9 hPa NNE 7.3 km/h 11.3 km/h 82% 0.0 mm
00:14 25.3 °C 22 °C 1008.9 hPa NNE 7.6 km/h 11.3 km/h 82% 0.0 mm
00:19 25.3 °C 22 °C 1008.9 hPa NNE 7.2 km/h 10.3 km/h 82% 0.0 mm
00:24 25.3 °C 22 °C 1008.9 hPa NE 6.9 km/h 11.3 km/h 82% 0.0 mm
00:29 25.3 °C 22.1 °C 1008.9 hPa NE 6.9 km/h 11.3 km/h 82.6% 0.0 mm
00:34 25.3 °C 22.2 °C 1008.9 hPa NNE 6.9 km/h 10 km/h 83% 0.0 mm
00:39 25.3 °C 22.2 °C 1009.0 hPa NNE 6.9 km/h 13.7 km/h 83% 0.0 mm
00:44 25.2 °C 22.1 °C 1009.0 hPa NNE 6.9 km/h 14.5 km/h 83% 0.0 mm
00:49 25.2 °C 22.1 °C 1009.0 hPa NE 6.6 km/h 9.5 km/h 83% 0.0 mm
00:54 25.1 °C 22 °C 1009.0 hPa NE 6.5 km/h 9.7 km/h 83% 0.0 mm
00:59 25.1 °C 22.1 °C 1008.9 hPa NE 6.4 km/h 9.3 km/h 83.3% 0.0 mm
01:04 25.1 °C 22.2 °C 1008.9 hPa NE 6.5 km/h 10 km/h 84% 0.0 mm
01:09 25.1 °C 22.2 °C 1008.9 hPa NE 6.5 km/h 9.7 km/h 84% 0.0 mm
01:14 25.1 °C 22.2 °C 1008.8 hPa NE 6.4 km/h 7.4 km/h 84% 0.0 mm
01:19 25.1 °C 22.2 °C 1008.8 hPa NE 5.6 km/h 10 km/h 84% 0.0 mm
01:24 25.1 °C 22.2 °C 1008.8 hPa NE 5 km/h 7.4 km/h 84% 0.0 mm
01:29 25.1 °C 22.2 °C 1008.7 hPa NE 4.8 km/h 8 km/h 84% 0.0 mm
01:34 25.1 °C 22.2 °C 1008.7 hPa NE 4.7 km/h 5.6 km/h 84% 0.0 mm
01:39 25.1 °C 22.2 °C 1008.7 hPa NE 3.9 km/h 5.6 km/h 84% 0.0 mm
01:44 25.1 °C 22.2 °C 1008.7 hPa NE 3.2 km/h 5.8 km/h 84% 0.0 mm
01:49 25.1 °C 22.2 °C 1008.7 hPa NE 3.2 km/h 6.4 km/h 84% 0.0 mm
01:54 25.1 °C 22.2 °C 1008.7 hPa NE 3.2 km/h 4.8 km/h 84% 0.0 mm
01:59 25.1 °C 22.2 °C 1008.5 hPa NE 3 km/h 4.8 km/h 84% 0.0 mm
02:04 25.1 °C 22.2 °C 1008.5 hPa NE 2.9 km/h 3.7 km/h 84% 0.0 mm
02:09 25.1 °C 22.2 °C 1008.5 hPa NE 1.3 km/h 3.9 km/h 84% 0.0 mm
02:14 25.1 °C 22.2 °C 1008.4 hPa Calm   5.8 km/h 83.9% 0.0 mm
02:19 25.1 °C 22.2 °C 1008.4 hPa North 1.4 km/h 6.4 km/h 84% 0.0 mm
02:24 25.1 °C 22.2 °C 1008.4 hPa North 2.2 km/h 5.8 km/h 83.9% 0.0 mm
02:29 25.1 °C 22.2 °C 1008.4 hPa North 2.8 km/h 6.4 km/h 83.8% 0.0 mm
02:34 25 °C 22.2 °C 1008.4 hPa North 3.2 km/h 6.4 km/h 84% 0.0 mm
02:39 25 °C 22.1 °C 1008.4 hPa NNO 3.2 km/h 7.4 km/h 84% 0.0 mm
02:44 24.9 °C 22.1 °C 1008.3 hPa NNO 3.2 km/h 8 km/h 84% 0.0 mm
02:49 24.9 °C 22 °C 1008.3 hPa NNO 4 km/h 7.4 km/h 84% 0.0 mm
02:54 24.9 °C 22 °C 1008.3 hPa NO 4.6 km/h 8 km/h 84% 0.0 mm
02:59 24.9 °C 22 °C 1008.3 hPa NO 4.2 km/h 8 km/h 84% 0.0 mm
03:04 24.9 °C 22.1 °C 1008.3 hPa NNO 3.9 km/h 8 km/h 84.4% 0.0 mm
03:09 24.9 °C 22.2 °C 1008.3 hPa NNO 3.5 km/h 8 km/h 85% 0.0 mm
03:14 24.9 °C 22.2 °C 1008.2 hPa NNO 3.2 km/h 5.6 km/h 85% 0.0 mm
03:19 24.9 °C 22.2 °C 1008.2 hPa NNO 3 km/h 4.8 km/h 85% 0.0 mm
03:24 24.9 °C 22.2 °C 1008.2 hPa NNO 2.9 km/h 4.8 km/h 85% 0.0 mm
03:29 24.9 °C 22.2 °C 1008.1 hPa NNO 2.9 km/h 5.6 km/h 85% 0.0 mm
03:34 24.9 °C 22.2 °C 1008.1 hPa NNO 2.9 km/h 3.9 km/h 85% 0.0 mm
03:39 24.9 °C 22.2 °C 1008.1 hPa NNO 2.5 km/h 3.9 km/h 85% 0.0 mm
03:44 24.9 °C 22.2 °C 1008.0 hPa NNO 2.2 km/h 5.8 km/h 85% 0.0 mm
03:49 24.9 °C 22.2 °C 1008.0 hPa NO 2.2 km/h 6.4 km/h 85% 0.0 mm
03:54 24.9 °C 22.2 °C 1008.0 hPa NO 2.2 km/h 6.4 km/h 85% 0.0 mm
03:59 24.9 °C 22.2 °C 1007.9 hPa NNO 3.2 km/h 6.4 km/h 85% 0.0 mm
04:04 24.9 °C 22.2 °C 1007.9 hPa NNO 3.9 km/h 6.4 km/h 85% 0.0 mm
04:09 24.8 °C 22.1 °C 1007.9 hPa NO 3.5 km/h 8 km/h 85% 0.0 mm
04:14 24.8 °C 22.2 °C 1007.9 hPa NO 3.2 km/h 8 km/h 85.7% 0.0 mm
04:19 24.8 °C 22.3 °C 1007.9 hPa NO 3 km/h 5.8 km/h 86% 0.0 mm
04:24 24.8 °C 22.3 °C 1007.9 hPa NO 2.9 km/h 6.4 km/h 86% 0.0 mm
04:29 24.8 °C 22.3 °C 1007.9 hPa NO 2.9 km/h 6.4 km/h 86% 0.0 mm
04:34 24.9 °C 22.4 °C 1007.9 hPa NNE 2.9 km/h 8 km/h 86% 0.0 mm
04:39 24.9 °C 22.4 °C 1008.0 hPa North 2.5 km/h 8 km/h 86% 0.0 mm
04:44 24.9 °C 22.4 °C 1008.0 hPa NO 2.2 km/h 7.4 km/h 86% 0.0 mm
04:49 24.9 °C 22.4 °C 1008.0 hPa NO 2.8 km/h 8 km/h 86% 0.0 mm
04:54 25 °C 22.5 °C 1008.0 hPa NO 3.2 km/h 6.4 km/h 86% 0.0 mm
04:59 25 °C 22.5 °C 1008.0 hPa NO 3.2 km/h 8 km/h 86% 0.0 mm
05:04 25 °C 22.5 °C 1008.0 hPa NO 3.2 km/h 8 km/h 86% 0.0 mm
05:09 25 °C 22.5 °C 1008.0 hPa NO 3.6 km/h 8.4 km/h 86% 0.0 mm
05:14 25 °C 22.5 °C 1008.0 hPa NO 3.9 km/h 8 km/h 86% 0.0 mm
05:19 25 °C 22.5 °C 1008.0 hPa NO 3.5 km/h 8 km/h 86% 0.0 mm
05:24 24.9 °C 22.4 °C 1008.0 hPa NO 3.2 km/h 6.4 km/h 86% 0.0 mm
05:29 24.9 °C 22.4 °C 1007.9 hPa NO 3.2 km/h 6.4 km/h 86% 0.0 mm
05:34 24.9 °C 22.4 °C 1007.9 hPa ONO 3.2 km/h 8.4 km/h 86% 0.0 mm
05:39 24.9 °C 22.4 °C 1008.1 hPa NO 3.6 km/h 8 km/h 86% 0.0 mm
05:44 24.9 °C 22.4 °C 1008.1 hPa NO 3.9 km/h 6.4 km/h 86% 0.0 mm
05:49 25 °C 22.5 °C 1008.1 hPa NO 3.5 km/h 6.4 km/h 86% 0.0 mm
05:54 25 °C 22.5 °C 1008.2 hPa ONO 3.2 km/h 6.4 km/h 86% 0.0 mm
05:59 25 °C 22.5 °C 1008.2 hPa ONO 3.2 km/h 6.4 km/h 86% 0.0 mm
06:04 25.1 °C 22.6 °C 1008.2 hPa ONO 3.2 km/h 6.4 km/h 86% 0.0 mm
06:09 25.1 °C 22.6 °C 1008.3 hPa ONO 3.2 km/h 8 km/h 86% 0.0 mm
06:14 25.1 °C 22.6 °C 1008.3 hPa ONO 3.2 km/h 8 km/h 86% 0.0 mm
06:19 25.2 °C 22.7 °C 1008.3 hPa NO 3.6 km/h 7.4 km/h 86% 0.0 mm
06:24 25.2 °C 22.7 °C 1008.5 hPa NO 3.9 km/h 8 km/h 86% 0.0 mm
06:29 25.2 °C 22.7 °C 1008.5 hPa NNO 3.9 km/h 8 km/h 86% 0.0 mm
06:34 25.2 °C 22.7 °C 1008.5 hPa NNO 3.9 km/h 8 km/h 86% 0.0 mm
06:39 25.2 °C 22.7 °C 1008.7 hPa NNO 3.5 km/h 7.4 km/h 86% 0.0 mm
06:44 25.2 °C 22.7 °C 1008.7 hPa NNO 3.2 km/h 8 km/h 86% 0.0 mm
06:49 25.1 °C 22.6 °C 1008.7 hPa Este 4 km/h 8.4 km/h 86% 0.0 mm
06:54 24.9 °C 22.4 °C 1008.8 hPa Este 4.7 km/h 8.4 km/h 86% 0.0 mm
06:59 24.9 °C 22.4 °C 1008.8 hPa ESE 5.3 km/h 8 km/h 86% 0.0 mm
07:04 24.8 °C 22.3 °C 1008.8 hPa ESE 5.8 km/h 8 km/h 86% 0.0 mm
07:09 24.8 °C 22.3 °C 1009.0 hPa ESE 4.6 km/h 8 km/h 86% 0.0 mm
07:14 24.8 °C 22.3 °C 1009.0 hPa Este 3.9 km/h 4.7 km/h 86% 0.0 mm
07:19 24.8 °C 22.3 °C 1009.0 hPa ENE 2.9 km/h 5.6 km/h 86% 0.0 mm
07:24 24.8 °C 22.3 °C 1009.0 hPa Este 2.2 km/h 7.4 km/h 86% 0.0 mm
07:29 24.8 °C 22.3 °C 1009.0 hPa ENE 2.8 km/h 8 km/h 86% 0.0 mm
07:34 24.8 °C 22.3 °C 1009.0 hPa NE 3.2 km/h 5.6 km/h 86% 0.0 mm
07:39 24.9 °C 22.4 °C 1009.1 hPa NE 1.8 km/h 4.8 km/h 86% 0.0 mm
07:44 24.9 °C 22.5 °C 1009.1 hPa Calm   5.8 km/h 86.2% 0.0 mm
07:49 25.1 °C 22.8 °C 1009.1 hPa North 1.1 km/h 6.4 km/h 87% 0.0 mm
07:54 25.1 °C 22.7 °C 1009.3 hPa NO 2.9 km/h 6.4 km/h 86.3% 0.0 mm
07:59 25.1 °C 22.6 °C 1009.3 hPa ONO 3.5 km/h 8.4 km/h 86% 0.0 mm
08:04 25 °C 22.5 °C 1009.3 hPa ONO 3.9 km/h 10 km/h 86% 0.0 mm
08:09 24.9 °C 22.4 °C 1009.3 hPa ONO 4.9 km/h 9.7 km/h 86% 0.0 mm
08:14 24.9 °C 22.4 °C 1009.3 hPa Oeste 5.8 km/h 9.7 km/h 86% 0.0 mm
08:19 25 °C 22.5 °C 1009.3 hPa ONO 4.4 km/h 5.6 km/h 86% 0.0 mm
08:24 25 °C 22.5 °C 1009.3 hPa ONO 3.2 km/h 5.8 km/h 86% 0.0 mm
08:29 25.1 °C 22.6 °C 1009.1 hPa NO 3.1 km/h 6.4 km/h 86% 0.0 mm
08:34 25.1 °C 22.6 °C 1009.1 hPa ONO 2.9 km/h 7.4 km/h 86% 0.0 mm
08:39 25.2 °C 22.7 °C 1009.1 hPa Oeste 3.9 km/h 8 km/h 86% 0.0 mm
08:44 25.3 °C 22.6 °C 1009.0 hPa OSO 4.7 km/h 9.3 km/h 85.2% 0.0 mm
08:49 25.4 °C 22.7 °C 1009.0 hPa Oeste 4.7 km/h 9.7 km/h 85% 0.0 mm
08:54 25.6 °C 22.8 °C 1009.2 hPa NO 4.6 km/h 9.3 km/h 84.8% 0.0 mm
08:59 25.7 °C 22.7 °C 1009.2 hPa ONO 4.7 km/h 9.7 km/h 84% 0.0 mm
09:04 25.7 °C 22.8 °C 1009.2 hPa North 4.7 km/h 8 km/h 84% 0.0 mm
09:09 25.8 °C 22.8 °C 1009.4 hPa NNO 3.8 km/h 8 km/h 83.8% 0.0 mm
09:14 25.8 °C 22.7 °C 1009.4 hPa NO 3.2 km/h 8 km/h 83% 0.0 mm
09:19 25.8 °C 22.5 °C 1009.4 hPa ONO 4.1 km/h 11.1 km/h 82.2% 0.0 mm
09:24 25.8 °C 22.3 °C 1009.4 hPa NO 4.7 km/h 9.5 km/h 81% 0.0 mm
09:29 26 °C 22.5 °C 1009.4 hPa NNO 5.3 km/h 11.1 km/h 81.2% 0.0 mm
09:34 26.1 °C 22.6 °C 1009.4 hPa NNE 5.8 km/h 11.3 km/h 81% 0.0 mm
09:39 26.3 °C 22.6 °C 1009.5 hPa NNE 5.3 km/h 8.4 km/h 80.4% 0.0 mm
09:44 26.3 °C 22.6 °C 1009.5 hPa NNO 5 km/h 11.9 km/h 80% 0.0 mm
09:49 26.5 °C 22.5 °C 1009.5 hPa North 5 km/h 13.7 km/h 79% 0.0 mm
09:54 26.7 °C 22.6 °C 1009.6 hPa NNE 5 km/h 14.5 km/h 78.3% 0.0 mm
09:59 26.9 °C 22.4 °C 1009.6 hPa North 5.5 km/h 11.9 km/h 76.5% 0.0 mm
10:04 26.8 °C 22.1 °C 1009.6 hPa North 5.8 km/h 13.7 km/h 75.4% 0.0 mm
10:09 26.8 °C 22.1 °C 1009.7 hPa NNE 6.1 km/h 14.5 km/h 75% 0.0 mm
10:14 26.9 °C 21.8 °C 1009.7 hPa NNE 6.4 km/h 13.7 km/h 73.8% 0.0 mm
10:19 26.9 °C 21.7 °C 1009.7 hPa NE 6.7 km/h 14.5 km/h 73.1% 0.0 mm
10:24 26.9 °C 21.6 °C 1009.7 hPa NE 6.9 km/h 14.5 km/h 72.9% 0.0 mm
10:29 26.9 °C 21.7 °C 1009.6 hPa NNE 6.9 km/h 11.3 km/h 73% 0.0 mm
10:34 27.2 °C 21.8 °C 1009.6 hPa North 6.9 km/h 11.3 km/h 72.5% 0.0 mm
10:39 27.2 °C 21.7 °C 1009.6 hPa NO 5.9 km/h 9.7 km/h 71.6% 0.0 mm
10:44 27.3 °C 21.6 °C 1009.6 hPa OSO 5 km/h 8 km/h 71% 0.0 mm
10:49 27.4 °C 21.6 °C 1009.6 hPa Este 3.9 km/h 8 km/h 70.4% 0.0 mm
10:54 27.6 °C 21.6 °C 1009.7 hPa NNE 3.2 km/h 8 km/h 70% 0.0 mm
10:59 27.7 °C 21.6 °C 1009.7 hPa NE 3.6 km/h 9.5 km/h 69.6% 0.0 mm
11:04 27.7 °C 21.6 °C 1009.7 hPa ENE 3.9 km/h 9.7 km/h 69.3% 0.0 mm
11:09 27.8 °C 21.7 °C 1009.8 hPa ENE 5.4 km/h 13 km/h 69.5% 0.0 mm
11:14 27.9 °C 21.7 °C 1009.8 hPa Este 6.5 km/h 13 km/h 69% 0.0 mm
11:19 27.9 °C 21.6 °C 1009.8 hPa ESE 7.1 km/h 12.9 km/h 68.7% 0.0 mm
11:24 28.1 °C 21.7 °C 1009.8 hPa Este 7.6 km/h 11.3 km/h 68.2% 0.0 mm
11:29 28.3 °C 21.6 °C 1009.8 hPa ESE 6.9 km/h 9.7 km/h 67% 0.0 mm
11:34 28.5 °C 21.6 °C 1009.8 hPa Sur 6.5 km/h 9.7 km/h 66.3% 0.0 mm
11:39 28.8 °C 21.6 °C 1009.8 hPa ENE 5.7 km/h 14.8 km/h 65.1% 0.0 mm
11:44 29 °C 21.5 °C 1009.7 hPa NNE 5 km/h 14.8 km/h 63.8% 0.0 mm
11:49 29.2 °C 21.3 °C 1009.7 hPa NNE 6.5 km/h 14.5 km/h 62.8% 0.0 mm
11:54 29.3 °C 21.1 °C 1009.7 hPa ENE 7.6 km/h 13 km/h 61.3% 0.0 mm
11:59 29.2 °C 20.7 °C 1009.6 hPa SSO 6.9 km/h 11.3 km/h 60% 0.0 mm
12:04 29.3 °C 20.5 °C 1009.6 hPa Sur 6.5 km/h 9.7 km/h 59% 0.0 mm
12:09 29.6 °C 20.6 °C 1009.6 hPa ESE 4.7 km/h 8.4 km/h 58.6% 0.0 mm
12:14 29.6 °C 20.5 °C 1009.6 hPa Oeste 3.2 km/h 11.1 km/h 58% 0.0 mm
12:19 29.6 °C 20.2 °C 1009.6 hPa Oeste 4.2 km/h 8.7 km/h 57.4% 0.0 mm
12:24 29.4 °C 19.3 °C 1009.7 hPa SSO 5 km/h 11.1 km/h 54.8% 0.0 mm
12:29 29.3 °C 19.5 °C 1009.7 hPa SE 5.4 km/h 11.3 km/h 55.5% 0.0 mm
12:34 29.6 °C 19.2 °C 1009.7 hPa ENE 5.8 km/h 11.3 km/h 53.6% 0.0 mm
12:39 29.8 °C 18.9 °C 1009.7 hPa NE 5.3 km/h 9.7 km/h 52.1% 0.0 mm
12:44 30 °C 18.9 °C 1009.7 hPa ENE 5 km/h 14.8 km/h 51.4% 0.0 mm
12:49 30.1 °C 18.6 °C 1009.7 hPa SE 6 km/h 14.5 km/h 50.2% 0.0 mm
12:54 30.1 °C 18.3 °C 1009.7 hPa SE 6.9 km/h 14.5 km/h 49.5% 0.0 mm
12:59 30 °C 19.5 °C 1009.5 hPa Este 7.9 km/h 14.8 km/h 53.3% 0.0 mm
13:04 30.1 °C 20.5 °C 1009.5 hPa NE 8.4 km/h 28.2 km/h 56.4% 0.0 mm
13:09 29.9 °C 20.8 °C 1009.6 hPa NE 10.3 km/h 28.2 km/h 58% 0.0 mm
13:14 29.8 °C 20.8 °C 1009.6 hPa ENE 11.9 km/h 34.3 km/h 58.3% 0.0 mm
13:19 29.8 °C 20.8 °C 1009.6 hPa ENE 14.4 km/h 33.8 km/h 58.4% 0.0 mm
13:24 30.1 °C 21.1 °C 1009.9 hPa NE 16.4 km/h 33.3 km/h 58.6% 0.0 mm
13:29 29.6 °C 20.9 °C 1009.9 hPa NE 17.4 km/h 43.1 km/h 59.3% 0.0 mm
13:34 28 °C 18.8 °C 1009.9 hPa NE 18 km/h 55.5 km/h 57.4% 0.0 mm
13:39 26.4 °C 18.6 °C 1010.5 hPa NE 27.2 km/h 56.3 km/h 62.4% 0.0 mm
13:44 26 °C 18.9 °C 1010.5 hPa NE 31.7 km/h 56.5 km/h 65% 0.0 mm
13:49 25.4 °C 18.7 °C 1010.5 hPa NNE 32.7 km/h 56.3 km/h 66.6% 0.0 mm
13:54 24.7 °C 18.4 °C 1011.1 hPa NNE 33.5 km/h 48.3 km/h 68% 0.0 mm
13:59 24.3 °C 17.7 °C 1011.1 hPa NNE 29.7 km/h 37 km/h 66.3% 0.0 mm
14:04 23.5 °C 17.8 °C 1011.1 hPa NNE 27 km/h 41.2 km/h 70.6% 1.0 mm
14:09 22 °C 18 °C 1011.3 hPa NE 25.1 km/h 41.8 km/h 78.2% 6.9 mm
14:14 21.3 °C 18.4 °C 1011.3 hPa ENE 23.7 km/h 35.4 km/h 83.2% 7.9 mm
14:19 21.2 °C 18.7 °C 1011.3 hPa Este 20.6 km/h 29.6 km/h 85.7% 8.2 mm
14:24 21.3 °C 19.1 °C 1011.3 hPa ENE 18 km/h 29 km/h 87.4% 8.2 mm
14:29 21.5 °C 19.4 °C 1010.6 hPa Este 15.7 km/h 22.5 km/h 88% 8.2 mm
14:34 21.8 °C 19.5 °C 1010.6 hPa ESE 14 km/h 22.5 km/h 86.7% 8.2 mm
14:39 22.1 °C 19.5 °C 1011.1 hPa NE 12 km/h 19.3 km/h 85.1% 8.2 mm
14:44 22.2 °C 19.4 °C 1011.1 hPa NNE 10.3 km/h 13.7 km/h 84.2% 8.2 mm
14:49 22.3 °C 19.5 °C 1011.1 hPa NNE 8.5 km/h 19.8 km/h 84% 8.2 mm
14:54 22.3 °C 19.3 °C 1011.2 hPa NE 6.9 km/h 25.1 km/h 82.8% 8.2 mm
14:59 22.4 °C 18.7 °C 1011.2 hPa NNE 12.3 km/h 25.9 km/h 79.9% 8.2 mm
15:04 22.5 °C 18.6 °C 1011.2 hPa NE 15.6 km/h 24.1 km/h 78.4% 8.2 mm
15:09 22.7 °C 18.9 °C 1011.5 hPa NE 13.7 km/h 15.6 km/h 79% 5.9 mm
15:14 22.8 °C 18.9 °C 1011.5 hPa NNE 12.2 km/h 16.1 km/h 79% 0.5 mm
15:19 22.8 °C 19 °C 1011.5 hPa NNE 10.7 km/h 14 km/h 79% 0.0 mm
15:24 22.9 °C 19.1 °C 1011.5 hPa NNE 9.5 km/h 14.5 km/h 79% 0.0 mm
15:29 22.9 °C 18.9 °C 1011.4 hPa NNE 7.5 km/h 10 km/h 78.4% 0.0 mm
15:34 23.1 °C 19.2 °C 1011.4 hPa NNE 5.8 km/h 13 km/h 79% 0.0 mm
15:39 23.1 °C 19.3 °C 1011.7 hPa ENE 6.7 km/h 12.9 km/h 79% 0.0 mm
15:44 23.2 °C 19.1 °C 1011.7 hPa NE 7.6 km/h 11.3 km/h 77.8% 0.0 mm
15:49 23.3 °C 18.7 °C 1011.7 hPa ESE 5 km/h 10 km/h 75.3% 0.0 mm
15:54 23.6 °C 18.6 °C 1012.3 hPa SE 2.9 km/h 13.7 km/h 73.5% 0.0 mm
15:59 23.8 °C 18.5 °C 1012.3 hPa NNE 5.1 km/h 14.5 km/h 72.5% 0.0 mm
16:04 23.8 °C 18.6 °C 1012.3 hPa North 6.5 km/h 9.7 km/h 72.4% 0.0 mm
16:09 24 °C 18.8 °C 1012.4 hPa NO 4.9 km/h 9.7 km/h 72.7% 0.0 mm
16:14 24 °C 18.7 °C 1012.4 hPa NE 3.9 km/h 9.5 km/h 72% 0.0 mm
16:19 24 °C 18.7 °C 1012.4 hPa ENE 5 km/h 10 km/h 72% 0.0 mm
16:24 24.1 °C 18.9 °C 1012.4 hPa ENE 5.8 km/h 9.7 km/h 72.8% 0.0 mm
16:29 24.1 °C 19 °C 1012.0 hPa ENE 5.1 km/h 9.7 km/h 73.2% 0.0 mm
16:34 24 °C 18.8 °C 1012.0 hPa ENE 4.7 km/h 9.5 km/h 72.8% 0.0 mm
16:39 24 °C 18.9 °C 1012.5 hPa NNE 4.8 km/h 12.2 km/h 73.2% 0.0 mm
16:44 24 °C 19.3 °C 1012.5 hPa North 5 km/h 13.7 km/h 75.2% 0.0 mm
16:49 24 °C 19.5 °C 1012.5 hPa NNE 5.5 km/h 14.5 km/h 76% 0.0 mm
16:54 23.8 °C 19.3 °C 1012.6 hPa NNE 5.8 km/h 12.2 km/h 75.9% 0.0 mm
16:59 23.7 °C 19.1 °C 1012.6 hPa NE 6.5 km/h 13 km/h 75.6% 0.0 mm
17:04 23.7 °C 19.2 °C 1012.6 hPa NNE 6.9 km/h 12.9 km/h 76% 0.0 mm
17:09 23.7 °C 19.2 °C 1012.6 hPa ENE 5.8 km/h 9.7 km/h 75.9% 0.0 mm
17:14 23.8 °C 19.4 °C 1012.2 hPa NE 5 km/h 8 km/h 76.4% 0.0 mm
17:19 23.8 °C 18.9 °C 1012.2 hPa NE 4.8 km/h 8.7 km/h 73.9% 0.0 mm
17:24 24.1 °C 19.3 °C 1012.2 hPa NNE 4.7 km/h 9.7 km/h 74.9% 0.0 mm
17:29 24.2 °C 19.6 °C 1012.1 hPa NE 5.3 km/h 9.7 km/h 75.7% 0.0 mm
17:34 24.2 °C 19.4 °C 1012.1 hPa NE 5.8 km/h 9.7 km/h 74.6% 0.0 mm
17:39 24.2 °C 19.2 °C 1012.4 hPa SO 4.2 km/h 11.1 km/h 73.2% 0.0 mm
17:44 24.3 °C 19 °C 1012.4 hPa Oeste 3.2 km/h 11.3 km/h 72% 0.0 mm
17:49 24.5 °C 18.9 °C 1012.4 hPa ONO 5 km/h 11.1 km/h 71% 0.0 mm
17:54 24.7 °C 19 °C 1012.5 hPa Oeste 6.4 km/h 13 km/h 70.9% 0.0 mm
17:59 24.8 °C 18.9 °C 1012.5 hPa Oeste 6.5 km/h 12.9 km/h 70.1% 0.0 mm
18:04 24.8 °C 18.9 °C 1012.5 hPa OSO 6.5 km/h 11.3 km/h 69.8% 0.0 mm
18:09 24.9 °C 19.2 °C 1012.5 hPa OSO 6.1 km/h 11.3 km/h 70.7% 0.0 mm
18:14 25.1 °C 19 °C 1012.5 hPa SSE 5.8 km/h 13 km/h 69.3% 0.0 mm
18:19 25.1 °C 19 °C 1012.5 hPa Sur 6.4 km/h 13 km/h 69% 0.0 mm
18:24 25.1 °C 19 °C 1012.5 hPa SSE 6.9 km/h 12.9 km/h 69% 0.0 mm
18:29 25.1 °C 19 °C 1012.4 hPa SSE 6.7 km/h 11.3 km/h 69.1% 0.0 mm
18:34 25.1 °C 19.1 °C 1012.4 hPa ESE 6.5 km/h 8 km/h 69.2% 0.0 mm
18:39 25.2 °C 19.1 °C 1012.7 hPa SSE 5 km/h 8 km/h 69% 0.0 mm
18:44 25.2 °C 19.1 °C 1012.7 hPa SSE 3.9 km/h 9.3 km/h 68.8% 0.0 mm
18:49 25.2 °C 19.1 °C 1012.7 hPa SE 3.9 km/h 16.4 km/h 68.9% 0.0 mm
18:54 25.2 °C 19 °C 1012.7 hPa Sur 3.9 km/h 16.7 km/h 68.6% 0.0 mm
18:59 24.9 °C 18.8 °C 1012.5 hPa SSO 6 km/h 13 km/h 68.9% 0.0 mm
19:04 24.9 °C 18.8 °C 1012.5 hPa SSO 7.6 km/h 13 km/h 69% 0.0 mm
19:09 24.9 °C 18.7 °C 1012.5 hPa SSE 7.6 km/h 12.9 km/h 68.5% 0.0 mm
19:14 24.9 °C 18.6 °C 1012.1 hPa SSO 7.6 km/h 11.3 km/h 68% 0.0 mm
19:19 24.9 °C 18.6 °C 1012.1 hPa SSO 6.9 km/h 10 km/h 67.9% 0.0 mm
19:24 24.9 °C 18.6 °C 1012.3 hPa Sur 6.5 km/h 9.7 km/h 67.8% 0.0 mm
19:29 25 °C 18.5 °C 1012.3 hPa SSO 5.6 km/h 9.7 km/h 67.2% 0.0 mm
19:34 25.1 °C 18.6 °C 1012.3 hPa OSO 5 km/h 7.6 km/h 67% 0.0 mm
19:39 25.2 °C 18.5 °C 1012.3 hPa SO 3.9 km/h 8 km/h 66.3% 0.0 mm
19:44 25.2 °C 18.4 °C 1012.2 hPa Oeste 3.2 km/h 6.4 km/h 66% 0.0 mm
19:49 25.3 °C 18.6 °C 1012.2 hPa NO 3 km/h 4.8 km/h 66.5% 0.0 mm
19:54 25.5 °C 18.7 °C 1012.5 hPa North 2.9 km/h 8.4 km/h 66% 0.0 mm
19:59 25.7 °C 19 °C 1012.5 hPa North 3.1 km/h 8 km/h 66.5% 0.0 mm
20:04 25.7 °C 18.9 °C 1012.5 hPa North 3.2 km/h 9.3 km/h 66.1% 0.0 mm
20:09 25.7 °C 18.9 °C 1012.8 hPa NNO 4.1 km/h 9.7 km/h 66% 0.0 mm
20:14 25.8 °C 18.9 °C 1012.8 hPa NNE 4.7 km/h 9.5 km/h 66% 0.0 mm
20:19 25.7 °C 18.9 °C 1012.8 hPa NNE 4.8 km/h 9.7 km/h 66% 0.0 mm
20:24 25.7 °C 19.1 °C 1012.8 hPa NNE 5 km/h 9.7 km/h 67.1% 0.0 mm
20:29 25.7 °C 19.3 °C 1012.8 hPa North 5 km/h 8.4 km/h 68% 0.0 mm
20:34 25.7 °C 19.1 °C 1012.8 hPa North 5 km/h 9.3 km/h 67.2% 0.0 mm
20:39 25.6 °C 19.1 °C 1013.1 hPa North 4.8 km/h 9.7 km/h 67.4% 0.0 mm
20:44 25.5 °C 18.7 °C 1013.1 hPa NE 4.7 km/h 9.5 km/h 66.3% 0.0 mm
20:49 25.4 °C 18.7 °C 1013.1 hPa NE 4.8 km/h 9.7 km/h 66.2% 0.0 mm
20:54 25.4 °C 18.8 °C 1013.2 hPa ENE 5 km/h 10 km/h 66.8% 0.0 mm
20:59 25.4 °C 18.5 °C 1013.2 hPa ENE 4.8 km/h 9.7 km/h 65.6% 0.0 mm
21:04 25.3 °C 18.2 °C 1013.2 hPa Este 4.6 km/h 9.7 km/h 65% 0.0 mm
21:09 25.3 °C 18.1 °C 1013.3 hPa Este 4.8 km/h 9.3 km/h 64.5% 0.0 mm
21:14 25.3 °C 18.1 °C 1013.3 hPa NE 5 km/h 9.7 km/h 64.5% 0.0 mm
21:19 25.3 °C 18 °C 1013.3 hPa NE 4.8 km/h 8 km/h 64% 0.0 mm
21:24 25.2 °C 17.9 °C 1013.3 hPa ENE 4.7 km/h 8.7 km/h 64.2% 0.0 mm
21:29 25.1 °C 18 °C 1013.3 hPa ENE 4.7 km/h 9.7 km/h 64.9% 0.0 mm
21:34 25.1 °C 18 °C 1013.3 hPa ENE 4.6 km/h 9.7 km/h 65% 0.0 mm
21:39 24.9 °C 18 °C 1013.6 hPa ENE 4.2 km/h 8 km/h 65.6% 0.0 mm
21:44 24.9 °C 18.1 °C 1013.6 hPa ENE 3.9 km/h 7.4 km/h 66% 0.0 mm
21:49 24.8 °C 18 °C 1013.6 hPa NE 3.9 km/h 8 km/h 66% 0.0 mm
21:54 24.8 °C 18 °C 1013.6 hPa ESE 3.9 km/h 8 km/h 65.9% 0.0 mm
21:59 24.7 °C 18 °C 1013.6 hPa Este 4.5 km/h 8 km/h 66% 0.0 mm
22:04 24.7 °C 17.9 °C 1013.6 hPa ENE 5 km/h 8 km/h 66% 0.0 mm
22:09 24.7 °C 18.1 °C 1013.9 hPa ESE 4.3 km/h 8.4 km/h 66.7% 0.0 mm
22:14 24.7 °C 18.2 °C 1013.9 hPa SE 3.9 km/h 8 km/h 67% 0.0 mm
22:19 24.7 °C 18.3 °C 1013.9 hPa ESE 4.3 km/h 8 km/h 67.6% 0.0 mm
22:24 24.6 °C 18.3 °C 1014.0 hPa ESE 4.7 km/h 7.4 km/h 68% 0.0 mm
22:29 24.6 °C 18.5 °C 1014.0 hPa SE 4.2 km/h 8 km/h 68.9% 0.0 mm
22:34 24.4 °C 18.4 °C 1014.0 hPa SSE 3.9 km/h 9.3 km/h 69% 0.0 mm
22:39 24.4 °C 18.4 °C 1014.2 hPa SE 4.3 km/h 9.7 km/h 69.4% 0.0 mm
22:44 24.4 °C 18.6 °C 1014.2 hPa SE 4.7 km/h 8.4 km/h 70% 0.0 mm
22:49 24.3 °C 18.5 °C 1014.2 hPa SE 4.2 km/h 8 km/h 70% 0.0 mm
22:54 24.3 °C 18.6 °C 1014.4 hPa SSE 3.9 km/h 8.4 km/h 70.5% 0.0 mm
22:59 24.3 °C 18.7 °C 1014.4 hPa SSE 3.9 km/h 8 km/h 71% 0.0 mm
23:04 24.2 °C 18.6 °C 1014.4 hPa SSO 3.9 km/h 8 km/h 71% 0.0 mm
23:09 24.2 °C 18.6 °C 1014.5 hPa SSE 3.3 km/h 5.6 km/h 71% 0.0 mm
23:14 24.2 °C 18.7 °C 1014.5 hPa SSE 2.9 km/h 4.8 km/h 71.6% 0.0 mm
23:19 24.1 °C 18.7 °C 1014.5 hPa SSE 1.2 km/h 5 km/h 72% 0.0 mm
23:24 24.1 °C 18.7 °C 1014.5 hPa Calm   5.6 km/h 72% 0.0 mm
23:29 24.1 °C 18.7 °C 1014.5 hPa Calm   4.8 km/h 72% 0.0 mm
23:34 24 °C 18.7 °C 1014.5 hPa Calm   7.6 km/h 72.4% 0.0 mm
23:39 23.9 °C 18.8 °C 1014.6 hPa ESE 1.6 km/h 8 km/h 73% 0.0 mm
23:44 23.8 °C 18.9 °C 1014.6 hPa ESE 2.9 km/h 8 km/h 73.9% 0.0 mm
23:49 23.7 °C 18.8 °C 1014.6 hPa ESE 2.5 km/h 6.4 km/h 74% 0.0 mm
23:54 23.7 °C 18.9 °C 1014.6 hPa ESE 2.2 km/h 8 km/h 74.4% 0.0 mm
23:59 23.6 °C 18.9 °C 1014.6 hPa ESE 2.8 km/h 8 km/h 75% 0.0 mm
Murcia-Puente Tocinos, España
Compliments of Weather Underground - 3 mb

La estación de MeteoMurcia.com, publica sus datos en los siguientes proyectos:

Weather Underground PWS IMURCIAP2 Meteoclimatic www.awekas.at

W3Counter
Web Analytics